星链-4471 (STARLINK-4471 )

导读 | 豆包AI

STARLINK-4471是美国SpaceX星链星座的卫星,于2022年8月31日发射升空,归属于美国。星链项目旨在打造全球卫星互联网星座,该卫星入轨后参与提供全球范围的高速互联网接入服务,补充星链星座的网络覆盖能力,推动全球卫星互联网组网进程。

Basic Information
目录编号:
53664
目录名称:
STARLINK-4471
国际标识:
2022-105S
轨道中心:
EARTH
卫星名称:
星链-4471
卫星全名:
星链-4471 (STARLINK-4471 )
卫星状态:
在轨 (已飞行1292 天)
发射日期:
2022-08-31 UTC
国别 :
美国 (US)
星等 :
--
Orbit Information
数据来源 国际轨道数据 AOE轨道数据
星历时间 2026-03-15T05:48:22+0800
11小时前
查看轨道信息
2026-03-11T10:00:00+0800
4天前
查看轨道信息
半长轴 6927.635km 6927.667km
偏心率 0.0002099 0.0001825
轨道倾角 97.603° 97.600°
近地点辐角 80.109° 69.779°
升交点赤经 316.320° 312.551°
平近点角 280.037° 89.169°
近地点 548.043km 548.265km
远地点 550.953km 550.795km
周期 95.639分钟 95.640分钟
每日圈数 15.056546 15.056439
Detailed Information
固有亮度:
5
最大亮度:
2.5
卫星平台:
Starlink v1.5
覆盖范围:
全球
运营商:
太空探索技术公司
运营商所在国:
美国
制造商(研发单位):
太空探索技术公司
制造商所在国:
美国
使用方式:
暂无
Satellite Introduction
星链(Starlink)计划是由太空探索技术公司(SpaceX)提出的一个巨型低轨卫星互联网星座项目,计划在2019年至2024年间在太空搭建由约1.2万颗卫星组成的“星链”网络,其中1584颗将部署在地球上空550千米处的近地轨道,并从2020年开始工作。该卫星仍在工作。
2D Orbit Map
3D Orbit Map
Orbit Altitude Analysis Chart
Orbit Inclination Analysis Chart
Orbit Comprehensive Analysis Chart
View Comprehensive Chart